W1CAT Weather Reports


Display with metric or nautical units.
time (UTC)temp
F
wind
direction
speed
MPH
gust
MPH
rain 1hr
in
rain 24hr
in
rain mn
in
humidity
%
barometer
mb
20260508033048 52 293 3.0 4.0 0.00 0.00 0.00 45
20260508032544 52 274 3.0 6.0 0.00 0.00 0.00 46
20260508032042 52 74 1.0 2.0 0.00 0.00 0.00 45
20260508031539 52 149 2.0 3.0 0.00 0.00 0.00 42
20260508031035 52 98 1.0 2.0 0.00 0.00 0.00 43
20260508030531 52 93 0.0 1.0 0.00 0.00 0.00 42
20260508030030 52 72 1.0 1.0 0.00 0.00 0.00 43
20260508025525 52 86 1.0 2.0 0.00 0.00 0.00 42
20260508025023 52 56 2.0 3.0 0.00 0.00 0.00 43
20260508024518 53 28 0.0 3.0 0.00 0.00 0.00 43
20260508024015 53 71 1.0 4.0 0.00 0.00 0.00 42
20260508023512 53 113 1.0 4.0 0.00 0.00 0.00 41
20260508023010 54 112 1.0 8.0 0.00 0.00 0.00 40
20260508022505 54 82 4.0 7.0 0.00 0.00 0.00 39
20260508022003 54 43 2.0 7.0 0.00 0.00 0.00 39
20260508021458 54 100 0.0 2.0 0.00 0.00 0.00 39
20260508020954 55 64 2.0 4.0 0.00 0.00 0.00 38
20260508020452 55 62 2.0 4.0 0.00 0.00 0.00 37
20260508015949 55 48 3.0 4.0 0.00 0.00 0.00 37
20260508015447 55 84 1.0 3.0 0.00 0.00 0.00 38
20260508014943 55 172 2.0 6.0 0.00 0.00 0.00 37
20260508014440 55 5 3.0 7.0 0.00 0.00 0.00 37
20260508013936 55 67 0.0 3.0 0.00 0.00 0.00 37
20260508013432 55 73 1.0 1.0 0.00 0.00 0.00 37
20260508012930 55 123 2.0 6.0 0.00 0.00 0.00 36
20260508012426 55 118 2.0 3.0 0.00 0.00 0.00 37
20260508011924 55 359 2.0 4.0 0.00 0.00 0.00 36
20260508011422 56 62 1.0 4.0 0.00 0.00 0.00 36
20260508010919 56 128 1.0 4.0 0.00 0.00 0.00 36
20260508010416 56 94 1.0 3.0 0.00 0.00 0.00 36
20260508005913 57 83 0.0 2.0 0.00 0.00 0.00 35
20260508005410 57 116 2.0 4.0 0.00 0.00 0.00 35
20260508004906 57 81 0.0 1.0 0.00 0.00 0.00 36
20260508004402 57 321 1.0 3.0 0.00 0.00 0.00 35
20260508003859 57 105 2.0 3.0 0.00 0.00 0.00 35
20260508003356 58 47 2.0 3.0 0.00 0.00 0.00 35
20260508002853 57 79 1.0 2.0 0.00 0.00 0.00 36
20260508002350 58 103 1.0 3.0 0.00 0.00 0.00 36
20260508001846 59 48 2.0 3.0 0.00 0.00 0.00 34
20260508001342 59 340 1.0 6.0 0.00 0.00 0.00 31
20260508000838 60 350 3.0 4.0 0.00 0.00 0.00 30
20260508000335 60 348 5.0 9.0 0.00 0.00 0.00 29
20260507235831 60 77 4.0 8.0 0.00 0.00 0.00 29
20260507235329 60 98 4.0 9.0 0.00 0.00 0.00 30
20260507234826 60 318 4.0 7.0 0.00 0.00 0.00 30
20260507234323 59 320 5.0 11.0 0.00 0.00 0.00 29
20260507233819 59 329 5.0 8.0 0.00 0.00 0.00 29
20260507233317 59 340 9.0 10.0 0.00 0.00 0.00 29
20260507232815 59 270 5.0 11.0 0.00 0.00 0.00 30
20260507232311 58 316 4.0 10.0 0.00 0.00 0.00 31
20260507231808 59 350 5.0 7.0 0.00 0.00 0.00 31
20260507231305 58 300 9.0 15.0 0.00 0.00 0.00 31
20260507230801 60 273 7.0 13.0 0.00 0.00 0.00 30
20260507230259 58 312 6.0 8.0 0.00 0.00 0.00 32
20260507225758 58 40 6.0 9.0 0.00 0.00 0.00 31
20260507225254 58 297 7.0 11.0 0.00 0.00 0.00 32
20260507224750 59 10 4.0 7.0 0.00 0.00 0.00 31
20260507224247 61 259 3.0 6.0 0.00 0.00 0.00 29
20260507223743 61 330 5.0 11.0 0.00 0.00 0.00 28
20260507223240 61 341 9.0 13.0 0.00 0.00 0.00 29
20260507222737 61 27 4.0 8.0 0.00 0.00 0.00 29
20260507222233 60 293 4.0 7.0 0.00 0.00 0.00 29
20260507221730 61 274 5.0 9.0 0.00 0.00 0.00 30
20260507221226 60 295 7.0 13.0 0.00 0.00 0.00 29
20260507220723 59 19 7.0 9.0 0.00 0.00 0.00 32
20260507220221 59 83 9.0 13.0 0.00 0.00 0.00 32
20260507215717 60 270 3.0 9.0 0.00 0.00 0.00 31
20260507215214 61 93 2.0 8.0 0.00 0.00 0.00 30
20260507214712 59 359 6.0 13.0 0.00 0.00 0.00 29
20260507214209 61 2 7.0 9.0 0.00 0.00 0.00 28
20260507213704 67 226 3.0 4.0 0.00 0.00 0.00 27
20260507213201 67 148 1.0 3.0 0.00 0.00 0.00 32
20260507212657 64 100 0.0 2.0 0.00 0.00 0.00 34
20260507212154 65 90 2.0 4.0 0.00 0.00 0.00 33
20260507211651 64 217 3.0 4.0 0.00 0.00 0.00 32
20260507211146 64 19 1.0 3.0 0.00 0.00 0.00 34
20260507210644 66 110 1.0 2.0 0.00 0.00 0.00 34
20260507210141 65 192 1.0 3.0 0.00 0.00 0.00 33
20260507205637 65 134 0.0 4.0 0.00 0.00 0.00 33
20260507205134 63 130 2.0 4.0 0.00 0.00 0.00 34
20260507204630 62 244 1.0 6.0 0.00 0.00 0.00 35
20260507204128 64 74 1.0 2.0 0.00 0.00 0.00 33
20260507203626 62 106 1.0 2.0 0.00 0.00 0.00 33
20260507203123 60 29 2.0 2.0 0.00 0.00 0.00 34
20260507202619 60 1 1.0 3.0 0.00 0.00 0.00 34
20260507202115 58 188 1.0 1.0 0.00 0.00 0.00 38
20260507201610 57 303 4.0 6.0 0.00 0.00 0.00 36
20260507201108 57 104 0.0 4.0 0.00 0.00 0.00 36
20260507200602 62 119 2.0 3.0 0.00 0.00 0.00 33
20260507200059 61 140 1.0 2.0 0.00 0.00 0.00 35
20260507195557 59 126 1.0 3.0 0.00 0.00 0.00 35
20260507195054 59 78 1.0 2.0 0.00 0.00 0.00 35
20260507194550 60 308 2.0 3.0 0.00 0.00 0.00 36
20260507194046 60 98 1.0 1.0 0.00 0.00 0.00 35
20260507193543 61 123 2.0 3.0 0.00 0.00 0.00 34
20260507193040 63 118 1.0 3.0 0.00 0.00 0.00 34
20260507192536 62 183 3.0 4.0 0.00 0.00 0.00 34
20260507192033 62 184 3.0 3.0 0.00 0.00 0.00 34
20260507191528 60 69 1.0 2.0 0.00 0.00 0.00 34
20260507191026 60 104 1.0 3.0 0.00 0.00 0.00 35
20260507190523 58 105 1.0 2.0 0.00 0.00 0.00 37
20260507190022 58 139 3.0 3.0 0.00 0.00 0.00 38
20260507185520 58 113 1.0 3.0 0.00 0.00 0.00 38
20260507185016 58 97 1.0 7.0 0.00 0.00 0.00 38
20260507184514 60 125 3.0 4.0 0.00 0.00 0.00 35
20260507184012 59 115 4.0 7.0 0.00 0.00 0.00 38
20260507183507 57 302 2.0 3.0 0.00 0.00 0.00 41
20260507183005 59 176 3.0 6.0 0.00 0.00 0.00 40
20260507182501 58 95 2.0 4.0 0.00 0.00 0.00 37
20260507181957 59 129 1.0 3.0 0.00 0.00 0.00 38
20260507181454 58 115 2.0 7.0 0.00 0.00 0.00 39
20260507180950 57 127 0.0 4.0 0.00 0.00 0.00 39
20260507180447 57 86 4.0 7.0 0.00 0.00 0.00 37
20260507175943 56 117 3.0 6.0 0.00 0.00 0.00 37
20260507175440 56 56 2.0 2.0 0.00 0.00 0.00 38
20260507174937 57 130 2.0 7.0 0.00 0.00 0.00 37
20260507174434 56 98 1.0 3.0 0.00 0.00 0.00 40
20260507173932 57 98 1.0 4.0 0.00 0.00 0.00 36
20260507173429 56 129 1.0 4.0 0.00 0.00 0.00 40
20260507172926 56 126 2.0 6.0 0.00 0.00 0.00 37
20260507172422 56 112 2.0 3.0 0.00 0.00 0.00 36
20260507171918 55 190 1.0 6.0 0.00 0.00 0.00 40
20260507171415 56 90 0.0 3.0 0.00 0.00 0.00 38
20260507170912 55 148 0.0 2.0 0.00 0.00 0.00 39
20260507170409 54 135 0.0 4.0 0.00 0.00 0.00 40
20260507165905 55 127 3.0 4.0 0.00 0.00 0.00 38
20260507165400 54 115 1.0 1.0 0.00 0.00 0.00 38
20260507164857 52 88 2.0 4.0 0.00 0.00 0.00 42
20260507164354 52 106 1.0 3.0 0.00 0.00 0.00 42
20260507163851 52 174 1.0 3.0 0.00 0.00 0.00 42
20260507163348 53 135 1.0 3.0 0.00 0.00 0.00 40
20260507162845 51 107 0.0 2.0 0.00 0.00 0.00 41
20260507162340 49 137 2.0 3.0 0.00 0.00 0.00 42
20260507161838 49 144 1.0 2.0 0.00 0.00 0.00 44
20260507161334 48 103 1.0 3.0 0.00 0.00 0.00 42
20260507160831 48 166 1.0 2.0 0.00 0.00 0.00 44
20260507160326 49 170 0.0 2.0 0.00 0.00 0.00 42
20260507155823 49 139 2.0 3.0 0.00 0.00 0.00 43
20260507155319 49 104 1.0 4.0 0.00 0.00 0.00 42
20260507154816 47 95 1.0 1.0 0.00 0.00 0.00 44
20260507154313 46 144 0.0 2.0 0.00 0.00 0.00 47
20260507153810 46 117 0.0 1.0 0.00 0.00 0.00 47
20260507153306 46 120 2.0 2.0 0.00 0.00 0.00 42
20260507152803 45 118 1.0 2.0 0.00 0.00 0.00 47
20260507152259 44 141 0.0 1.0 0.00 0.00 0.00 46
20260507151755 44 105 0.0 0.0 0.00 0.00 0.00 47
20260507151251 44 110 0.0 0.0 0.00 0.00 0.00 44
20260507150748 43 105 0.0 1.0 0.00 0.00 0.00 43
20260507150245 43 100 0.0 2.0 0.00 0.00 0.00 46
20260507145741 43 97 0.0 2.0 0.00 0.00 0.00 46
20260507145238 41 111 0.0 2.0 0.00 0.00 0.00 50
20260507144735 40 112 0.0 0.0 0.00 0.00 0.00 53
20260507144233 38 97 0.0 1.0 0.00 0.00 0.00 54
20260507143729 38 92 0.0 1.0 0.00 0.00 0.00 54
20260507143226 38 101 0.0 0.0 0.00 0.00 0.00 57
20260507142722 38 105 0.0 1.0 0.00 0.00 0.00 54
20260507142219 38 92 0.0 0.0 0.00 0.00 0.00 55
20260507141715 37 98 0.0 1.0 0.00 0.00 0.00 56
20260507141213 37 103 0.0 1.0 0.00 0.00 0.00 56
20260507140708 36 139 2.0 2.0 0.00 0.00 0.00 57
20260507140206 35 132 1.0 2.0 0.00 0.00 0.00 60
20260507135703 35 122 2.0 2.0 0.00 0.00 0.00 61
20260507135200 35 114 1.0 2.0 0.00 0.00 0.00 59
20260507134657 35 142 1.0 1.0 0.00 0.00 0.00 58
20260507134152 34 108 0.0 0.0 0.00 0.00 0.00 59
20260507133648 32 105 0.0 0.0 0.00 0.00 0.00 65
20260507133146 31 99 0.0 0.0 0.00 0.00 0.00 67
20260507132643 29 94 0.0 0.0 0.00 0.00 0.00 72
20260507132139 28 97 0.0 0.0 0.00 0.00 0.00 77
20260507131636 24 103 0.0 0.0 0.00 0.00 0.00 83
20260507131134 23 109 0.0 0.0 0.00 0.00 0.00 84
20260507130630 23 109 0.0 0.0 0.00 0.00 0.00 83
20260507130128 23 109 0.0 0.0 0.00 0.00 0.00 82
20260507125627 24 108 0.0 0.0 0.00 0.00 0.00 82
20260507125124 24 107 0.0 0.0 0.00 0.00 0.00 81
20260507124620 24 108 0.0 0.0 0.00 0.00 0.00 81
20260507124118 24 111 0.0 0.0 0.00 0.00 0.00 82
20260507123616 23 100 0.0 0.0 0.00 0.00 0.00 82
20260507123113 23 103 0.0 0.0 0.00 0.00 0.00 82
20260507122608 23 101 0.0 0.0 0.00 0.00 0.00 82
20260507122104 23 97 0.0 0.0 0.00 0.00 0.00 82
20260507121600 23 97 0.0 0.0 0.00 0.00 0.00 81
20260507121056 22 128 0.0 0.0 0.00 0.00 0.00 83
20260507120552 22 105 0.0 0.0 0.00 0.00 0.00 83
20260507120049 22 100 0.0 0.0 0.00 0.00 0.00 83
20260507115545 22 102 0.0 0.0 0.00 0.00 0.00 85
20260507115041 22 98 0.0 0.0 0.00 0.00 0.00 87
20260507114537 21 108 0.0 0.0 0.00 0.00 0.00 86
20260507114035 21 107 0.0 0.0 0.00 0.00 0.00 85
20260507113532 22 107 0.0 0.0 0.00 0.00 0.00 85
20260507113029 22 103 0.0 0.0 0.00 0.00 0.00 84
20260507112527 22 107 0.0 0.0 0.00 0.00 0.00 81
20260507112023 23 104 0.0 0.0 0.00 0.00 0.00 81
20260507111520 23 110 0.0 0.0 0.00 0.00 0.00 81
20260507111017 24 104 0.0 0.0 0.00 0.00 0.00 80
20260507110513 24 106 0.0 0.0 0.00 0.00 0.00 80
20260507110010 24 99 0.0 1.0 0.00 0.00 0.00 80
20260507105507 24 107 0.0 0.0 0.00 0.00 0.00 80
20260507105003 24 111 0.0 0.0 0.00 0.00 0.00 79
20260507104500 24 107 0.0 0.0 0.00 0.00 0.00 78
20260507103956 25 104 0.0 0.0 0.00 0.00 0.00 76
20260507103453 26 134 0.0 1.0 0.00 0.00 0.00 75
20260507102949 26 113 0.0 1.0 0.00 0.00 0.00 73
20260507102446 27 146 0.0 1.0 0.00 0.00 0.00 72
20260507101942 29 107 0.0 1.0 0.00 0.00 0.00 64
20260507101437 30 88 0.0 0.0 0.00 0.00 0.00 61
20260507100934 29 102 1.0 2.0 0.00 0.00 0.00 60
20260507100432 30 97 0.0 1.0 0.00 0.00 0.00 62
20260507095930 31 108 0.0 2.0 0.00 0.00 0.00 60
20260507095427 31 266 4.0 4.0 0.00 0.00 0.00 58
20260507094924 31 222 4.0 4.0 0.00 0.00 0.00 58
20260507094420 31 63 3.0 7.0 0.00 0.00 0.00 58
20260507093917 30 260 3.0 9.0 0.00 0.00 0.00 60
20260507093415 29 358 2.0 4.0 0.00 0.00 0.00 66
20260507092913 30 96 0.0 2.0 0.00 0.00 0.00 64
20260507092409 30 218 1.0 3.0 0.00 0.00 0.00 65
20260507091906 30 96 1.0 1.0 0.00 0.00 0.00 63
20260507091402 30 93 2.0 3.0 0.00 0.00 0.00 62
20260507090858 31 106 1.0 3.0 0.00 0.00 0.00 60
20260507090354 31 268 2.0 4.0 0.00 0.00 0.00 58
20260507085852 30 50 1.0 1.0 0.00 0.00 0.00 59
20260507085348 31 101 0.0 1.0 0.00 0.00 0.00 63
20260507084845 31 95 1.0 2.0 0.00 0.00 0.00 60
20260507084342 32 54 1.0 4.0 0.00 0.00 0.00 58
20260507083839 32 249 3.0 4.0 0.00 0.00 0.00 58
20260507083336 32 241 4.0 4.0 0.00 0.00 0.00 58
20260507082832 32 338 6.0 9.0 0.00 0.00 0.00 57
20260507082327 33 236 4.0 9.0 0.00 0.00 0.00 56
20260507081825 33 351 5.0 8.0 0.00 0.00 0.00 56
20260507081321 33 26 6.0 13.0 0.00 0.00 0.00 54
20260507080817 34 47 8.0 10.0 0.00 0.00 0.00 53
20260507080314 33 25 6.0 10.0 0.00 0.00 0.00 53
20260507075809 33 282 6.0 10.0 0.00 0.00 0.00 55
20260507075307 33 285 6.0 8.0 0.00 0.00 0.00 56
20260507074802 33 321 4.0 7.0 0.00 0.00 0.00 56
20260507074300 33 10 4.0 7.0 0.00 0.00 0.00 55
20260507073757 33 65 2.0 4.0 0.00 0.00 0.00 58
20260507073253 32 273 4.0 6.0 0.00 0.00 0.00 59
20260507072751 32 108 0.0 3.0 0.00 0.00 0.00 61
20260507072248 32 64 1.0 6.0 0.00 0.00 0.00 60
20260507071746 33 90 2.0 4.0 0.00 0.00 0.00 59
20260507071242 33 39 2.0 8.0 0.00 0.00 0.00 60
20260507070739 33 22 2.0 6.0 0.00 0.00 0.00 58
20260507070236 32 299 2.0 8.0 0.00 0.00 0.00 60
20260507065732 32 59 2.0 4.0 0.00 0.00 0.00 61
20260507065229 32 98 0.0 2.0 0.00 0.00 0.00 62
20260507064727 32 93 1.0 2.0 0.00 0.00 0.00 62
20260507064226 32 96 0.0 0.0 0.00 0.00 0.00 62
20260507063722 32 81 1.0 2.0 0.00 0.00 0.00 61
20260507063219 32 104 1.0 1.0 0.00 0.00 0.00 62
20260507062716 33 96 0.0 0.0 0.00 0.00 0.00 62
20260507062214 33 253 2.0 3.0 0.00 0.00 0.00 59
20260507061711 33 72 1.0 1.0 0.00 0.00 0.00 61
20260507061209 34 184 2.0 3.0 0.00 0.00 0.00 58
20260507060707 34 30 2.0 4.0 0.00 0.00 0.00 59
20260507060203 34 77 1.0 2.0 0.00 0.00 0.00 58
20260507055659 35 35 2.0 7.0 0.00 0.23 0.23 56
20260507055155 35 128 4.0 8.0 0.00 0.23 0.23 56
20260507054651 34 250 3.0 7.0 0.00 0.23 0.23 57
20260507054148 34 74 2.0 3.0 0.00 0.23 0.23 58
20260507053646 35 330 4.0 6.0 0.00 0.23 0.23 58
20260507053144 34 77 2.0 7.0 0.00 0.23 0.23 59
20260507052642 33 96 2.0 3.0 0.00 0.23 0.23 64
20260507052138 32 62 1.0 1.0 0.00 0.23 0.23 71
20260507051636 32 90 1.0 4.0 0.00 0.23 0.23 71
20260507051127 31 103 1.0 3.0 0.00 0.23 0.23 76
20260507050624 28 106 1.0 1.0 0.00 0.23 0.23 90
20260507050121 29 104 0.0 0.0 0.00 0.23 0.23 90
20260507045618 29 110 0.0 1.0 0.00 0.23 0.23 90
20260507045114 29 106 0.0 1.0 0.00 0.23 0.23 91
20260507044610 29 120 0.0 0.0 0.00 0.23 0.23 92
20260507044108 29 106 0.0 1.0 0.00 0.23 0.23 93
20260507043603 29 96 1.0 2.0 0.00 0.23 0.23 93
20260507043101 29 102 0.0 0.0 0.00 0.23 0.23 93
20260507042556 29 98 0.0 1.0 0.00 0.23 0.23 93
20260507042052 29 98 0.0 1.0 0.00 0.23 0.23 93
20260507041549 29 99 0.0 2.0 0.00 0.23 0.23 93
20260507041046 28 108 0.0 0.0 0.00 0.23 0.23 93
20260507040543 29 100 0.0 0.0 0.00 0.23 0.23 92
20260507040039 28 112 0.0 0.0 0.00 0.23 0.23 91
20260507035535 29 104 0.0 0.0 0.00 0.23 0.23 91
20260507035031 29 92 1.0 1.0 0.00 0.23 0.23 91
20260507034528 29 94 0.0 0.0 0.00 0.23 0.23 91
20260507034026 29 106 0.0 0.0 0.00 0.23 0.23 90
20260507033524 30 113 0.0 0.0 0.00 0.23 0.23 89